Flag for Germany Weather past 2 weeks in Langenfeld (Rheinland), North Rhine-Westphalia, Germany

Now
61 °F

Passing clouds.


Feels Like: 61 °F
Forecast: 54 / 62 °F
Wind: 2 mph from Southeast

Location: Duesseldorf

Current Time: Sep 20, 2014 at 2:54:54 AM

Latest Report: Sep 20, 2014 at 2:20 AM


Visibility: N/A

Pressure: 29.92 "Hg

Humidity: 94%

Dew point: 59 °F

Location of Langenfeld (Rheinland)Location

Historic Weather in Langenfeld (Rheinland) — Graph

°F

Langenfeld (Rheinland) temperature yesterday

Maximum temperature yesterday: 77 °F (at 4:50 PM)
Minimum temperature yesterday: 63 °F (at 12:20 AM)
Average temperature yesterday: 67 °F

Past Weeks' High & Low Weather Summary

 TemperatureHumidityPressure
High77 °F (Sep 5, 5:50 PM)100% (Sep 8, 6:50 AM)30.24 "Hg (Sep 8, 6:50 AM)
Low46 °F (Sep 12, 5:50 AM)46% (Sep 11, 4:50 PM)29.83 "Hg (Sep 18, 4:50 AM)
Average63 °F78%30.02 "Hg
* Reported Sep 5 1:20 AM — Sep 20 1:50 AM, Langenfeld (Rheinland), Weather by CustomWeather, © 2014

Note: Actual official high and low records may vary slightly from our data, if they occured in-between our weather recording intervals... More about our weather records

Advertising

Langenfeld (Rheinland) weather history for previous 24 hours

 ConditionsComfort  
Time TempWeatherWind HumidityBarometerVisibility
1:50 AM
Sep 20
61 °FPassing clouds.3 mph94%29.92 "HgN/A
1:20 AM61 °FPassing clouds.2 mph94%29.92 "HgN/A
12:50 AM61 °FFog.3 mph94%29.92 "HgN/A
12:20 AM63 °FFog.2 mph88%29.92 "HgN/A
11:50 PM
Sep 19
63 °FFog.1 mph94%29.92 "HgN/A
11:20 PM64 °FPassing clouds.2 mph88%29.92 "HgN/A
10:50 PM64 °FClear.3 mph88%29.92 "Hg10 mi
10:20 PM64 °FClear.3 mph88%29.92 "Hg10 mi
9:50 PM64 °FClear.2 mph88%29.92 "Hg10 mi
9:20 PM64 °FClear.5 mph88%29.92 "Hg10 mi
8:50 PM66 °FClear.2 mph83%29.89 "Hg10 mi
8:20 PM66 °FScattered clouds.3 mph83%29.89 "HgN/A
7:50 PM68 °FScattered clouds.2 mph78%29.86 "HgN/A
7:20 PM70 °FPartly sunny.3 mph73%29.86 "HgN/A
6:50 PM70 °FPartly sunny.8 mph73%29.86 "HgN/A
6:20 PM72 °FPartly sunny.7 mph69%29.86 "HgN/A
5:50 PM73 °FPartly sunny.10 mph65%29.86 "HgN/A
5:20 PM75 °FPartly sunny.7 mph65%29.86 "HgN/A
4:50 PM77 °FPartly sunny.6 mph61%29.86 "HgN/A
4:20 PM75 °FScattered clouds.8 mph65%29.86 "HgN/A
3:50 PM75 °FScattered clouds.6 mph61%29.86 "HgN/A
3:20 PM75 °FScattered clouds.6 mph65%29.86 "HgN/A
2:50 PM75 °FPartly sunny.5 mph65%29.86 "HgN/A
2:20 PM75 °FBroken clouds.7 mph65%29.86 "HgN/A
1:50 PM73 °FPartly sunny.5 mph69%29.86 "HgN/A
1:20 PM72 °FPartly sunny.6 mph73%29.86 "HgN/A
12:50 PM72 °FBroken clouds.5 mph73%29.86 "HgN/A
12:20 PM70 °FPartly sunny.7 mph73%29.86 "HgN/A
11:50 AM72 °FPartly sunny.3 mph69%29.86 "HgN/A
11:20 AM70 °FPartly sunny.5 mph73%29.86 "HgN/A
10:50 AM70 °FPartly sunny.6 mph73%29.86 "HgN/A
10:20 AM70 °FScattered clouds.6 mph73%29.86 "HgN/A
9:50 AM68 °FPartly sunny.6 mph83%29.86 "HgN/A
9:20 AM66 °FPartly sunny.7 mph88%29.86 "HgN/A
8:50 AM63 °FSunny.7 mph94%29.86 "Hg10 mi
8:20 AM63 °FSunny.7 mph94%29.86 "Hg10 mi
7:50 AM63 °FClear.7 mph94%29.83 "Hg10 mi
7:20 AM63 °FClear.8 mph94%29.83 "Hg10 mi
6:50 AM63 °FClear.7 mph94%29.83 "Hg10 mi
6:20 AM63 °FClear.8 mph94%29.83 "Hg10 mi
5:50 AM63 °FClear.7 mph94%29.83 "Hg10 mi
5:20 AM63 °FPassing clouds.8 mph94%29.83 "HgN/A
4:50 AM63 °FClear.7 mph94%29.83 "Hg10 mi
4:20 AM64 °FClear.7 mph88%29.83 "Hg10 mi
3:50 AM63 °FClear.5 mph88%29.83 "Hg10 mi
3:20 AM63 °FClear.6 mph94%29.83 "Hg10 mi
2:50 AM63 °FPassing clouds.7 mph94%29.83 "HgN/A
2:20 AM64 °FPassing clouds.8 mph88%29.83 "HgN/A
Weather by CustomWeather, © 2014

See weather overviewHow to use our weather pages